THY1KD LOWW-LTFM

Flight info

Callsign THY1KD
Flight time 1h 49m
Altitude 41000
Route ADAMA Z648 VEDER L140 ALAMU DCT EPARI DCT TEGRI DCT SODGO DCT NULGO DCT TIMUR DCT XANEX L606 GASRU DCT RILEX
Aircraft A359/H-SDE2E3GHIJ3J4J5LM1ORWXY/LB1D1

Departure

Time 2026-05-07 06:31
Airport Vienna International Airport (LOWW)

Arrival

Time 2026-05-07 08:20
Airport İstanbul Airport (LTFM)
Time Latitude Longitude Altitude Speed Heading
2026-05-07 06:13 48.11777 16.56024 616 ft 0 kts 38°
2026-05-07 06:13 48.11780 16.56028 616 ft 0 kts 38°
2026-05-07 06:20 48.11797 16.56047 616 ft 4 kts 38°
2026-05-07 06:20 48.11819 16.56074 630 ft 4 kts 38°
2026-05-07 06:20 48.11835 16.56092 616 ft 2 kts 38°
2026-05-07 06:20 48.11815 16.56067 632 ft 4 kts 45°
2026-05-07 06:21 48.11797 16.56037 616 ft 4 kts 52°
2026-05-07 06:21 48.11782 16.56005 633 ft 4 kts 59°
2026-05-07 06:21 48.11769 16.55969 616 ft 4 kts 67°
2026-05-07 06:21 48.11760 16.55931 616 ft 4 kts 77°
2026-05-07 06:22 48.11756 16.55892 633 ft 4 kts 94°
2026-05-07 06:22 48.11755 16.55877 616 ft 0 kts 116°
2026-05-07 06:26 48.11733 16.55948 630 ft 12 kts 117°
2026-05-07 06:26 48.11648 16.55986 627 ft 15 kts 156°
2026-05-07 06:26 48.11584 16.56125 628 ft 18 kts 116°
2026-05-07 06:26 48.11525 16.56310 630 ft 21 kts 116°
2026-05-07 06:27 48.11467 16.56489 626 ft 15 kts 115°
2026-05-07 06:27 48.11417 16.56644 630 ft 18 kts 116°
2026-05-07 06:27 48.11357 16.56825 629 ft 21 kts 116°
2026-05-07 06:27 48.11290 16.57028 630 ft 23 kts 116°
2026-05-07 06:28 48.11219 16.57241 630 ft 21 kts 115°
2026-05-07 06:28 48.11153 16.57446 627 ft 23 kts 116°
2026-05-07 06:28 48.11095 16.57624 626 ft 16 kts 117°
2026-05-07 06:28 48.11023 16.57633 631 ft 12 kts 205°
2026-05-07 06:29 48.10941 16.57571 630 ft 13 kts 214°
2026-05-07 06:29 48.10939 16.57460 627 ft 12 kts 291°
2026-05-07 06:29 48.10946 16.57438 616 ft 0 kts 294°
2026-05-07 06:30 48.10960 16.57392 613 ft 27 kts 296°
2026-05-07 06:31 48.11156 16.56788 630 ft 100 kts 296°
2026-05-07 06:31 48.11554 16.55567 660 ft 155 kts 296°
2026-05-07 06:31 48.12006 16.54145 1489 ft 147 kts 294°
2026-05-07 06:31 48.12148 16.52701 2334 ft 144 kts 254°
2026-05-07 06:32 48.11430 16.51653 3050 ft 151 kts 212°
2026-05-07 06:32 48.10510 16.50884 3655 ft 153 kts 211°
2026-05-07 06:32 48.09596 16.49999 4167 ft 158 kts 217°
2026-05-07 06:32 48.08750 16.48896 4691 ft 165 kts 223°
2026-05-07 06:33 48.07871 16.47742 5173 ft 176 kts 212°
2026-05-07 06:33 48.06695 16.46984 5467 ft 197 kts 193°
2026-05-07 06:33 48.05243 16.46900 5742 ft 221 kts 174°
2026-05-07 06:33 48.03645 16.47205 6143 ft 245 kts 171°
2026-05-07 06:34 48.01891 16.47651 6630 ft 263 kts 168°
2026-05-07 06:34 48.00147 16.48573 7440 ft 270 kts 152°
2026-05-07 06:34 47.98711 16.50402 8398 ft 278 kts 128°
2026-05-07 06:34 47.97990 16.53104 9322 ft 289 kts 99°
2026-05-07 06:35 47.97925 16.56150 10169 ft 299 kts 91°
2026-05-07 06:35 47.97989 16.59365 10629 ft 321 kts 91°
2026-05-07 06:35 47.98058 16.62749 10998 ft 344 kts 91°
2026-05-07 06:35 47.98121 16.66451 11463 ft 363 kts 91°
2026-05-07 06:36 47.98137 16.67504 11651 ft 366 kts 91°
2026-05-07 06:36 47.98162 16.69199 11982 ft 370 kts 91°
2026-05-07 06:36 47.98216 16.73129 12748 ft 378 kts 91°
2026-05-07 06:36 47.98267 16.77088 13553 ft 384 kts 91°
2026-05-07 06:37 47.98313 16.81053 14283 ft 390 kts 92°
2026-05-07 06:37 47.98359 16.85127 15028 ft 395 kts 92°
2026-05-07 06:37 47.98402 16.89249 15755 ft 401 kts 92°
2026-05-07 06:37 47.98443 16.93440 16525 ft 406 kts 92°
2026-05-07 06:38 47.98483 16.97658 17289 ft 409 kts 93°
2026-05-07 06:38 47.98524 17.01924 18010 ft 415 kts 93°
2026-05-07 06:38 47.98564 17.06259 18680 ft 419 kts 93°
2026-05-07 06:38 47.98602 17.10625 19378 ft 423 kts 94°
2026-05-07 06:39 47.98639 17.15044 20097 ft 427 kts 94°
2026-05-07 06:39 47.98674 17.19478 20825 ft 430 kts 94°
2026-05-07 06:39 47.98708 17.23975 21551 ft 433 kts 94°
2026-05-07 06:39 47.98740 17.28488 22265 ft 437 kts 94°
2026-05-07 06:40 47.98637 17.33025 22907 ft 438 kts 101°
2026-05-07 06:40 47.98064 17.37473 23555 ft 437 kts 110°
2026-05-07 06:40 47.97231 17.41840 24135 ft 438 kts 112°
2026-05-07 06:40 47.96293 17.46170 24734 ft 440 kts 114°
2026-05-07 06:41 47.95305 17.50507 25345 ft 442 kts 114°
2026-05-07 06:41 47.94304 17.54856 25934 ft 445 kts 114°
2026-05-07 06:41 47.93300 17.59249 26492 ft 449 kts 114°
2026-05-07 06:41 47.92298 17.63678 27055 ft 453 kts 114°
2026-05-07 06:42 47.91295 17.68151 27578 ft 457 kts 113°
2026-05-07 06:42 47.90291 17.72668 28145 ft 461 kts 113°
2026-05-07 06:42 47.89286 17.77203 28685 ft 463 kts 113°
2026-05-07 06:42 47.88266 17.81801 29260 ft 467 kts 113°
2026-05-07 06:43 47.87247 17.86415 29813 ft 473 kts 113°
2026-05-07 06:43 47.86209 17.91075 30423 ft 474 kts 113°
2026-05-07 06:43 47.85159 17.95743 30779 ft 478 kts 114°
2026-05-07 06:43 47.83904 18.00323 31126 ft 478 kts 119°
2026-05-07 06:44 47.82542 18.04853 31461 ft 480 kts 120°
2026-05-07 06:44 47.81141 18.09385 31744 ft 485 kts 120°
2026-05-07 06:44 47.79710 18.13943 32096 ft 488 kts 120°
2026-05-07 06:44 47.78282 18.18466 32433 ft 491 kts 120°
2026-05-07 06:45 47.76826 18.23070 32734 ft 494 kts 120°
2026-05-07 06:45 47.75369 18.27712 33033 ft 498 kts 119°
2026-05-07 06:45 47.74153 18.32574 33323 ft 507 kts 111°
2026-05-07 06:45 47.73393 18.37722 33703 ft 513 kts 103°
2026-05-07 06:46 47.72881 18.42978 34051 ft 515 kts 101°
2026-05-07 06:46 47.72452 18.48259 34402 ft 516 kts 100°
2026-05-07 06:46 47.72059 18.53560 34755 ft 516 kts 100°
2026-05-07 06:46 47.71802 18.57132 35004 ft 515 kts 100°
2026-05-07 06:47 47.71418 18.62413 35401 ft 514 kts 100°
2026-05-07 06:47 47.71027 18.67684 35767 ft 513 kts 100°
2026-05-07 06:47 47.70626 18.72944 36074 ft 513 kts 100°
2026-05-07 06:47 47.70215 18.78209 36396 ft 513 kts 101°
2026-05-07 06:48 47.69798 18.83465 36736 ft 512 kts 100°
2026-05-07 06:48 47.69319 18.88625 37086 ft 509 kts 104°
2026-05-07 06:48 47.68439 18.93674 37394 ft 504 kts 113°
2026-05-07 06:48 47.67087 18.98395 37699 ft 497 kts 122°
2026-05-07 06:49 47.65661 19.01893 37932 ft 492 kts 130°
2026-05-07 06:49 47.64108 19.04823 38163 ft 487 kts 136°
2026-05-07 06:49 47.61851 19.08552 38460 ft 485 kts 138°
2026-05-07 06:49 47.59534 19.12174 38708 ft 485 kts 139°
2026-05-07 06:50 47.57186 19.15752 38928 ft 484 kts 139°
2026-05-07 06:50 47.54829 19.19318 39070 ft 485 kts 139°
2026-05-07 06:50 47.52472 19.22891 39267 ft 485 kts 139°
2026-05-07 06:50 47.50123 19.26470 39469 ft 485 kts 138°
2026-05-07 06:51 47.47776 19.30060 39677 ft 485 kts 138°
2026-05-07 06:51 47.45433 19.33650 39844 ft 486 kts 138°
2026-05-07 06:51 47.43089 19.37243 40039 ft 486 kts 138°
2026-05-07 06:51 47.40746 19.40834 40225 ft 486 kts 138°
2026-05-07 06:52 47.38401 19.44424 40423 ft 485 kts 138°
2026-05-07 06:52 47.36058 19.48009 40547 ft 486 kts 138°
2026-05-07 06:52 47.31328 19.55218 40736 ft 490 kts 138°
2026-05-07 06:53 47.28962 19.58816 40936 ft 490 kts 138°
2026-05-07 06:53 47.26590 19.62420 40950 ft 490 kts 138°
2026-05-07 06:53 47.21849 19.69609 40965 ft 489 kts 138°
2026-05-07 06:54 47.17104 19.76783 40943 ft 489 kts 137°
2026-05-07 06:54 47.12343 19.83959 40970 ft 491 kts 137°
2026-05-07 06:55 47.07570 19.91136 40979 ft 491 kts 138°
2026-05-07 06:55 47.02793 19.98299 40980 ft 491 kts 138°
2026-05-07 06:56 46.98008 20.05455 40975 ft 491 kts 138°
2026-05-07 06:56 46.93223 20.12590 40977 ft 492 kts 137°
2026-05-07 06:57 46.88455 20.19681 40976 ft 492 kts 137°
2026-05-07 06:57 46.83649 20.26811 40972 ft 492 kts 137°
2026-05-07 06:58 46.78838 20.33927 40977 ft 492 kts 138°
2026-05-07 06:58 46.74023 20.41031 40978 ft 492 kts 138°
2026-05-07 06:59 46.69202 20.48125 40980 ft 492 kts 138°
2026-05-07 06:59 46.64376 20.55206 40979 ft 492 kts 138°
2026-05-07 07:00 46.59551 20.62268 40984 ft 492 kts 138°
2026-05-07 07:00 46.54716 20.69322 40975 ft 492 kts 138°
2026-05-07 07:01 46.49883 20.76359 40981 ft 492 kts 138°
2026-05-07 07:01 46.45046 20.83381 40997 ft 492 kts 139°
2026-05-07 07:02 46.40208 20.90386 41004 ft 492 kts 139°
2026-05-07 07:02 46.35360 20.97384 41006 ft 492 kts 138°
2026-05-07 07:03 46.30503 21.04379 41013 ft 493 kts 138°
2026-05-07 07:03 46.25642 21.11361 41017 ft 493 kts 138°
2026-05-07 07:04 46.20605 21.18056 41017 ft 491 kts 142°
2026-05-07 07:04 46.15460 21.24517 41019 ft 491 kts 142°
2026-05-07 07:05 46.10323 21.31008 41021 ft 491 kts 141°
2026-05-07 07:05 46.05207 21.37534 41018 ft 491 kts 141°
2026-05-07 07:06 46.00094 21.44070 41033 ft 491 kts 141°
2026-05-07 07:06 45.95021 21.50538 41035 ft 492 kts 141°
2026-05-07 07:07 45.89900 21.57050 41016 ft 492 kts 141°
2026-05-07 07:07 45.84775 21.63547 41019 ft 492 kts 141°
2026-05-07 07:08 45.79643 21.70036 41015 ft 492 kts 141°
2026-05-07 07:08 45.74512 21.76507 41021 ft 492 kts 141°
2026-05-07 07:09 45.69367 21.82979 41020 ft 492 kts 141°
2026-05-07 07:09 45.64223 21.89434 41027 ft 493 kts 141°
2026-05-07 07:10 45.59067 21.95888 41023 ft 493 kts 142°
2026-05-07 07:10 45.53914 22.02320 41028 ft 492 kts 141°
2026-05-07 07:11 45.48754 22.08745 41031 ft 492 kts 141°
2026-05-07 07:11 45.43600 22.15147 41038 ft 492 kts 141°
2026-05-07 07:12 45.38438 22.21543 41035 ft 492 kts 142°
2026-05-07 07:12 45.33275 22.27923 41041 ft 492 kts 141°
2026-05-07 07:13 45.28104 22.34297 41052 ft 492 kts 141°
2026-05-07 07:13 45.22934 22.40655 41051 ft 492 kts 141°
2026-05-07 07:14 45.17756 22.47007 41060 ft 492 kts 141°
2026-05-07 07:14 45.12582 22.53338 41063 ft 492 kts 141°
2026-05-07 07:15 45.07398 22.59664 41069 ft 492 kts 141°
2026-05-07 07:15 45.02205 22.65987 41072 ft 493 kts 141°
2026-05-07 07:16 44.97005 22.72303 41059 ft 493 kts 141°
2026-05-07 07:16 44.91835 22.78564 41071 ft 493 kts 141°
2026-05-07 07:17 44.86628 22.84857 41068 ft 493 kts 141°
2026-05-07 07:17 44.81282 22.90881 41069 ft 492 kts 145°
2026-05-07 07:18 44.75784 22.96632 41074 ft 493 kts 146°
2026-05-07 07:18 44.70293 23.02397 41068 ft 493 kts 145°
2026-05-07 07:19 44.64819 23.08212 41070 ft 493 kts 145°
2026-05-07 07:19 44.59357 23.14034 41071 ft 493 kts 145°
2026-05-07 07:20 44.53892 23.19848 41073 ft 493 kts 145°
2026-05-07 07:20 44.48419 23.25652 41056 ft 494 kts 145°
2026-05-07 07:21 44.42934 23.31454 41068 ft 494 kts 145°
2026-05-07 07:21 44.37450 23.37240 41055 ft 494 kts 145°
2026-05-07 07:22 44.31960 23.43019 41070 ft 494 kts 145°
2026-05-07 07:22 44.26472 23.48780 41068 ft 494 kts 145°
2026-05-07 07:23 44.20982 23.54532 41064 ft 493 kts 145°
2026-05-07 07:23 44.15527 23.60234 41065 ft 494 kts 145°
2026-05-07 07:24 44.10033 23.65962 41060 ft 494 kts 145°
2026-05-07 07:24 44.04619 23.71840 41062 ft 495 kts 139°
2026-05-07 07:25 43.97385 23.82121 41062 ft 497 kts 135°
2026-05-07 07:26 43.92661 23.89125 41051 ft 497 kts 134°
2026-05-07 07:26 43.87932 23.96111 41056 ft 497 kts 135°
2026-05-07 07:27 43.83185 24.03076 41056 ft 497 kts 135°
2026-05-07 07:27 43.78431 24.10023 41053 ft 497 kts 135°
2026-05-07 07:28 43.73671 24.16959 41049 ft 498 kts 135°
2026-05-07 07:28 43.68902 24.23893 41048 ft 498 kts 135°
2026-05-07 07:29 43.64016 24.30653 41048 ft 497 kts 138°
2026-05-07 07:29 43.59002 24.37216 41042 ft 497 kts 138°
2026-05-07 07:30 43.53984 24.43791 41044 ft 498 kts 138°
2026-05-07 07:30 43.48978 24.50403 41045 ft 499 kts 137°
2026-05-07 07:31 43.44007 24.56982 41040 ft 499 kts 138°
2026-05-07 07:31 43.39006 24.63588 41037 ft 499 kts 138°
2026-05-07 07:32 43.33994 24.70190 41040 ft 499 kts 138°
2026-05-07 07:32 43.28975 24.76783 41036 ft 499 kts 138°
2026-05-07 07:33 43.23950 24.83366 41040 ft 499 kts 138°
2026-05-07 07:33 43.18911 24.89952 41040 ft 501 kts 138°
2026-05-07 07:34 43.13856 24.96545 41039 ft 501 kts 138°
2026-05-07 07:34 43.08808 25.03123 41044 ft 501 kts 138°
2026-05-07 07:35 43.03759 25.09685 41045 ft 502 kts 138°
2026-05-07 07:35 42.99546 25.15147 41052 ft 503 kts 138°
2026-05-07 07:36 42.96728 25.18795 41054 ft 503 kts 138°
2026-05-07 07:41 42.96426 25.19186 41053 ft 503 kts 138°
2026-05-07 07:42 42.91342 25.25755 41058 ft 503 kts 138°
2026-05-07 07:42 42.86288 25.32271 41060 ft 503 kts 138°
2026-05-07 07:43 42.81174 25.38849 41055 ft 502 kts 138°
2026-05-07 07:43 42.76092 25.45369 41061 ft 502 kts 138°
2026-05-07 07:44 42.71042 25.51832 41059 ft 502 kts 139°
2026-05-07 07:44 42.65942 25.58353 41066 ft 504 kts 139°
2026-05-07 07:45 42.60825 25.64875 41073 ft 505 kts 139°
2026-05-07 07:45 42.55706 25.71376 41087 ft 504 kts 139°
2026-05-07 07:46 42.50585 25.77865 41033 ft 505 kts 139°
2026-05-07 07:46 42.48015 25.81116 40801 ft 505 kts 139°
2026-05-07 07:46 42.45444 25.84366 40553 ft 506 kts 139°
2026-05-07 07:46 42.42876 25.87609 40308 ft 506 kts 139°
2026-05-07 07:47 42.40301 25.90856 40077 ft 506 kts 139°
2026-05-07 07:47 42.37723 25.94105 39833 ft 506 kts 139°
2026-05-07 07:47 42.35143 25.97349 39617 ft 507 kts 139°
2026-05-07 07:47 42.32562 26.00593 39367 ft 508 kts 139°
2026-05-07 07:48 42.29973 26.03843 39139 ft 508 kts 139°
2026-05-07 07:48 42.27402 26.07123 38908 ft 509 kts 136°
2026-05-07 07:48 42.25085 26.10741 38663 ft 510 kts 127°
2026-05-07 07:48 42.23156 26.14758 38378 ft 511 kts 121°
2026-05-07 07:49 42.21382 26.18923 38098 ft 512 kts 120°
2026-05-07 07:49 42.19629 26.23113 37824 ft 514 kts 119°
2026-05-07 07:49 42.17871 26.27326 37550 ft 516 kts 119°
2026-05-07 07:49 42.16109 26.31540 37279 ft 516 kts 119°
2026-05-07 07:50 42.14342 26.35762 37005 ft 517 kts 119°
2026-05-07 07:50 42.12572 26.39987 36749 ft 518 kts 119°
2026-05-07 07:50 42.10801 26.44207 36497 ft 518 kts 119°
2026-05-07 07:50 42.09028 26.48427 36111 ft 517 kts 119°
2026-05-07 07:51 42.07256 26.52638 35439 ft 516 kts 118°
2026-05-07 07:51 42.05485 26.56838 34604 ft 518 kts 118°
2026-05-07 07:51 42.03701 26.61070 33727 ft 521 kts 118°
2026-05-07 07:51 42.01908 26.65314 32822 ft 523 kts 118°
2026-05-07 07:52 42.00109 26.69562 31935 ft 524 kts 118°
2026-05-07 07:52 41.98300 26.73826 31015 ft 526 kts 118°
2026-05-07 07:52 41.96485 26.78102 30144 ft 527 kts 118°
2026-05-07 07:52 41.94608 26.82312 29459 ft 522 kts 120°
2026-05-07 07:53 41.92714 26.86447 28813 ft 517 kts 120°
2026-05-07 07:53 41.90845 26.90532 28158 ft 511 kts 120°
2026-05-07 07:53 41.88997 26.94583 27531 ft 506 kts 120°
2026-05-07 07:53 41.87178 26.98579 27176 ft 496 kts 120°
2026-05-07 07:54 41.85404 27.02464 27050 ft 481 kts 120°
2026-05-07 07:54 41.83683 27.06235 26905 ft 468 kts 120°
2026-05-07 07:54 41.82033 27.09847 26711 ft 456 kts 120°
2026-05-07 07:54 41.80388 27.13434 26345 ft 449 kts 121°
2026-05-07 07:55 41.78644 27.16907 25776 ft 449 kts 124°
2026-05-07 07:55 41.76856 27.20326 25256 ft 446 kts 124°
2026-05-07 07:55 41.75085 27.23722 24764 ft 443 kts 123°
2026-05-07 07:55 41.73331 27.27103 24271 ft 441 kts 123°
2026-05-07 07:56 41.71591 27.30466 23786 ft 438 kts 123°
2026-05-07 07:56 41.69621 27.33554 23226 ft 436 kts 138°
2026-05-07 07:56 41.67120 27.35687 22735 ft 430 kts 158°
2026-05-07 07:56 41.64296 27.36887 22242 ft 424 kts 167°
2026-05-07 07:57 41.61451 27.37831 21741 ft 419 kts 167°
2026-05-07 07:57 41.58634 27.38760 21260 ft 414 kts 167°
2026-05-07 07:57 41.55854 27.39696 20772 ft 410 kts 167°
2026-05-07 07:57 41.53107 27.40637 20387 ft 403 kts 166°
2026-05-07 07:58 41.50431 27.41557 20180 ft 392 kts 166°
2026-05-07 07:58 41.47826 27.42455 19977 ft 381 kts 166°
2026-05-07 07:58 41.45298 27.43327 19786 ft 370 kts 166°
2026-05-07 07:58 41.42836 27.44195 19505 ft 363 kts 165°
2026-05-07 07:59 41.40553 27.45565 19133 ft 359 kts 146°
2026-05-07 07:59 41.38530 27.47476 18778 ft 355 kts 142°
2026-05-07 07:59 41.36569 27.49456 18342 ft 353 kts 141°
2026-05-07 07:59 41.34618 27.51426 17935 ft 350 kts 142°
2026-05-07 08:00 41.32692 27.53360 17567 ft 345 kts 142°
2026-05-07 08:00 41.30789 27.55266 17216 ft 340 kts 142°
2026-05-07 08:00 41.28909 27.57140 16870 ft 336 kts 142°
2026-05-07 08:00 41.27047 27.58994 16522 ft 333 kts 142°
2026-05-07 08:01 41.25202 27.60829 16178 ft 330 kts 142°
2026-05-07 08:01 41.23366 27.62652 15835 ft 328 kts 142°
2026-05-07 08:01 41.21543 27.64462 15493 ft 326 kts 142°
2026-05-07 08:01 41.19727 27.66264 15152 ft 325 kts 142°
2026-05-07 08:02 41.17925 27.68050 14815 ft 323 kts 142°
2026-05-07 08:02 41.16131 27.69826 14483 ft 321 kts 142°
2026-05-07 08:02 41.14342 27.71595 14151 ft 320 kts 142°
2026-05-07 08:02 41.12565 27.73351 13804 ft 318 kts 142°
2026-05-07 08:03 41.10799 27.75096 13470 ft 315 kts 142°
2026-05-07 08:03 41.09049 27.76825 13140 ft 312 kts 142°
2026-05-07 08:03 41.07315 27.78536 12817 ft 310 kts 142°
2026-05-07 08:03 41.05596 27.80232 12506 ft 307 kts 142°
2026-05-07 08:04 41.03889 27.81916 12177 ft 305 kts 142°
2026-05-07 08:04 41.02191 27.83589 11862 ft 303 kts 142°
2026-05-07 08:04 41.00503 27.85252 11495 ft 303 kts 142°
2026-05-07 08:04 40.98808 27.86921 11114 ft 304 kts 142°
2026-05-07 08:05 40.97126 27.88601 10874 ft 299 kts 140°
2026-05-07 08:05 40.95686 27.90624 10878 ft 317 kts 123°
2026-05-07 08:05 40.94789 27.93270 10836 ft 311 kts 102°
2026-05-07 08:05 40.94376 27.96023 10582 ft 302 kts 97°
2026-05-07 08:06 40.94057 27.98754 10250 ft 299 kts 96°
2026-05-07 08:06 40.93756 28.01463 9996 ft 298 kts 96°
2026-05-07 08:06 40.93454 28.04181 9707 ft 298 kts 96°
2026-05-07 08:06 40.93153 28.06886 9426 ft 297 kts 96°
2026-05-07 08:07 40.92851 28.09585 9142 ft 296 kts 96°
2026-05-07 08:07 40.92549 28.12278 8860 ft 296 kts 96°
2026-05-07 08:07 40.92249 28.14965 8583 ft 295 kts 96°
2026-05-07 08:07 40.91951 28.17610 8314 ft 294 kts 96°
2026-05-07 08:08 40.91651 28.20278 8055 ft 293 kts 97°
2026-05-07 08:08 40.91349 28.22937 7782 ft 292 kts 97°
2026-05-07 08:08 40.91048 28.25592 7492 ft 292 kts 97°
2026-05-07 08:08 40.90747 28.28237 7254 ft 291 kts 97°
2026-05-07 08:09 40.90447 28.30875 7064 ft 290 kts 97°
2026-05-07 08:09 40.90147 28.33518 6884 ft 290 kts 97°
2026-05-07 08:09 40.89847 28.36150 6686 ft 290 kts 97°
2026-05-07 08:09 40.89547 28.38792 6481 ft 290 kts 97°
2026-05-07 08:10 40.89245 28.41426 6288 ft 290 kts 97°
2026-05-07 08:10 40.88944 28.44052 6091 ft 289 kts 97°
2026-05-07 08:10 40.88643 28.46681 5894 ft 289 kts 97°
2026-05-07 08:10 40.88340 28.49294 5694 ft 285 kts 98°
2026-05-07 08:11 40.88045 28.51826 5535 ft 273 kts 98°
2026-05-07 08:11 40.87763 28.54254 5379 ft 263 kts 98°
2026-05-07 08:11 40.87491 28.56601 5229 ft 255 kts 98°
2026-05-07 08:11 40.87224 28.58907 5067 ft 253 kts 98°
2026-05-07 08:12 40.86957 28.61200 4929 ft 252 kts 98°
2026-05-07 08:12 40.86690 28.63490 4784 ft 252 kts 98°
2026-05-07 08:12 40.86530 28.65786 4623 ft 251 kts 86°
2026-05-07 08:12 40.86912 28.68010 4477 ft 248 kts 62°
2026-05-07 08:13 40.87965 28.69739 4332 ft 241 kts 34°
2026-05-07 08:13 40.89383 28.70876 4189 ft 238 kts 24°
2026-05-07 08:13 40.90841 28.71857 4053 ft 238 kts 24°
2026-05-07 08:13 40.92342 28.72855 4027 ft 238 kts 24°
2026-05-07 08:14 40.93818 28.73846 4028 ft 237 kts 24°
2026-05-07 08:14 40.95271 28.74824 4033 ft 238 kts 24°
2026-05-07 08:14 40.96794 28.75672 4025 ft 236 kts 14°
2026-05-07 08:14 40.98391 28.76092 4038 ft 234 kts
2026-05-07 08:15 41.00011 28.76172 4025 ft 232 kts 356°
2026-05-07 08:15 41.01628 28.76123 4025 ft 230 kts 355°
2026-05-07 08:15 41.03179 28.76080 4014 ft 215 kts 356°
2026-05-07 08:15 41.04651 28.76053 4037 ft 208 kts 356°
2026-05-07 08:16 41.06056 28.76038 4033 ft 198 kts 356°
2026-05-07 08:16 41.07427 28.76024 4021 ft 197 kts 355°
2026-05-07 08:16 41.08786 28.76002 3831 ft 195 kts 355°
2026-05-07 08:16 41.10145 28.75975 3522 ft 196 kts 355°
2026-05-07 08:17 41.11509 28.75949 3227 ft 196 kts 356°
2026-05-07 08:17 41.12876 28.75923 2936 ft 197 kts 355°
2026-05-07 08:17 41.14242 28.75896 2675 ft 196 kts 355°
2026-05-07 08:17 41.15590 28.75872 2413 ft 190 kts 356°
2026-05-07 08:18 41.16877 28.75850 2154 ft 180 kts 356°
2026-05-07 08:18 41.18096 28.75826 1905 ft 171 kts 357°
2026-05-07 08:18 41.19278 28.75802 1698 ft 169 kts 356°
2026-05-07 08:18 41.20449 28.75779 1467 ft 168 kts 357°
2026-05-07 08:19 41.21616 28.75757 1259 ft 167 kts 357°
2026-05-07 08:19 41.22773 28.75736 1022 ft 167 kts 357°
2026-05-07 08:19 41.23934 28.75713 806 ft 167 kts 358°
2026-05-07 08:19 41.25061 28.75693 586 ft 157 kts 358°
2026-05-07 08:20 41.26115 28.75671 408 ft 146 kts 357°
2026-05-07 08:20 41.27080 28.75654 313 ft 131 kts 357°
2026-05-07 08:20 41.27861 28.75644 281 ft 70 kts 359°
2026-05-07 08:20 41.28176 28.75638 269 ft 31 kts 357°
2026-05-07 08:21 41.28338 28.75566 263 ft 19 kts 333°
2026-05-07 08:21 41.28421 28.75480 260 ft 15 kts 308°
2026-05-07 08:21 41.28406 28.75362 260 ft 14 kts 206°
2026-05-07 08:21 41.28315 28.75352 264 ft 13 kts 179°
2026-05-07 08:22 41.28226 28.75354 269 ft 14 kts 179°
2026-05-07 08:22 41.28118 28.75355 274 ft 17 kts 179°
2026-05-07 08:22 41.28032 28.75356 278 ft 20 kts 179°
2026-05-07 08:22 41.27892 28.75359 285 ft 21 kts 179°
2026-05-07 08:23 41.27738 28.75361 296 ft 21 kts 179°
2026-05-07 08:23 41.27588 28.75363 303 ft 20 kts 180°
2026-05-07 08:23 41.27445 28.75364 305 ft 19 kts 179°
2026-05-07 08:23 41.27312 28.75366 310 ft 21 kts 179°
2026-05-07 08:24 41.27179 28.75368 310 ft 14 kts 179°
2026-05-07 08:24 41.27086 28.75359 314 ft 15 kts 204°
2026-05-07 08:24 41.27062 28.75225 314 ft 18 kts 272°
2026-05-07 08:24 41.27063 28.75037 317 ft 22 kts 268°
2026-05-07 08:25 41.27060 28.74830 314 ft 23 kts 269°
2026-05-07 08:25 41.27058 28.74670 317 ft 13 kts 269°
2026-05-07 08:25 41.26997 28.74606 315 ft 12 kts 184°
2026-05-07 08:25 41.26905 28.74608 320 ft 14 kts 180°
2026-05-07 08:26 41.26718 28.74617 320 ft 8 kts 150°
2026-05-07 08:26 41.26710 28.74676 317 ft 8 kts 89°
2026-05-07 08:26 41.26710 28.74713 320 ft 3 kts 89°
2026-05-07 08:27 41.26710 28.74714 320 ft 0 kts 90°